Location: Wingville
(42.9917°N, 90.4915°W)
Time: 01:45:19
(UTC+00:00)

Oscar 19 - Visible Passes

Search period start: 26 June 2022 00:00
Search period end: 06 July 2022 00:00
Orbit: 772 x 790 km, 98.8° (Epoch: 25 June)

Date Brightness Start Highest point End Pass type
(mag) Time Alt. Az. Time Alt. Az. Time Alt. Az.
26 Jun 13.1 08:13:06 10° ENE 08:15:30 13° E 08:17:54 10° ESE visible
27 Jun 11.3 09:18:15 10° NNE 09:23:18 55° E 09:28:19 10° S visible
28 Jun 12.4 08:46:44 10° NE 08:51:07 28° E 08:55:28 10° SSE visible
29 Jun 13.1 08:16:05 10° ENE 08:18:46 14° E 08:21:26 10° ESE visible
30 Jun 11.2 09:21:28 10° NNE 09:26:32 59° ESE 09:31:34 10° S visible
01 Jul 12.3 08:49:53 10° NE 08:54:21 30° E 08:58:48 10° SSE visible
02 Jul 13.1 08:19:06 10° NE 08:22:01 15° E 08:24:55 10° SE visible
03 Jul 11.1 09:24:40 10° NNE 09:29:46 63° ESE 09:34:49 10° S visible
04 Jul 12.2 08:53:03 10° NE 08:57:35 32° E 09:02:07 10° SSE visible
05 Jul 13.0 08:22:08 10° NE 08:25:17 16° E 08:28:24 10° SE visible
